This demonstration page uses our WeatherBlox Daily Observations layout. Learn more.

Left ArrowRight Arrow

40.92501, -98.34201

Hourly Observations for June 9, 2020

Temp ( °F °C ) Dew Point ( °F °C ) Humidity (%) Winds ( mph kmh ) Pressure ( in mb ) Visibility ( mi km ) Precip ( " mm )
12:53 am 00:53 Clear 77 25 63 17.2 62 62 SSE 18 30 29.54 1000 10 16 0.00 0.00
1:53 am 01:53 Clear 76 24.4 63 17.2 64 64 SSE 18 30 29.52 1000 10 16 0.00 0.00
2:53 am 02:53 Clear 74 23.3 63 17.2 69 69 SSE 16 26 29.52 1000 10 16 0.00 0.00
3:53 am 03:53 Clear 72 22.2 64 17.8 76 76 ESE 7 11 29.52 1000 10 16 0.00 0.00
4:53 am 04:53 Clear 71 21.7 65 18.3 81 81 SE 16 26 29.49 999 10 16 0.00 0.00
5:53 am 05:53 Partly Cloudy 71 21.7 66 18.9 84 84 SE 5 7 29.51 999 9 14 0.00 0.00
6:00 am 06:00 Mostly Cloudy 71 21.7 66 18.9 84 84 SE 7 11 29.49 999 9 14 0.00 0.00
6:17 am 06:17 Cloudy 71 21.7 66 18.9 84 84 SE 6 9 29.48 998 7 11 0.00 0.00
6:53 am 06:53 Cloudy 71 21.7 66 18.9 84 84 SE 9 15 29.50 999 7 11 0.00 0.00
7:53 am 07:53 Cloudy 71 21.7 66 18.9 84 84 Calm 29.52 1000 7 11 0.00 0.00
8:21 am 08:21 Cloudy with Light Rain 71 21.7 67 19.4 87 87 ESE 3 6 29.49 999 7 11 0.00 0.00
8:53 am 08:53 Cloudy with Light Rain 71 21.7 67 19.4 87 87 E 6 9 29.52 1000 6 10 0.00 0.00
9:23 am 09:23 Cloudy with Light Rain 67 19.4 63 17.2 87 87 NNW 6 9 29.51 999 8 13 0.00 0.00
9:33 am 09:33 Cloudy with Light Rain 65 18.3 62 16.7 90 90 NNW 18 30 29.51 999 2 3 0.00 0.00
9:53 am 09:53 Cloudy with Light Rain 64 17.8 61 16.1 90 90 N 20 31 29.53 1000 3 4 0.01 0.25
10:10 am 10:10 Cloudy with Light Rain 64 17.8 61 16.1 90 90 N 15 24 29.52 1000 4 6 0.00 0.00
10:53 am 10:53 Cloudy 64 17.8 61 16.1 90 90 N 22 35 29.52 1000 8 13 0.00 0.00
11:53 am 11:53 Cloudy with Light Rain 64 17.8 61 16.1 90 90 N 25 41 29.52 1000 5 8 0.00 0.00
11:55 am 11:55 Cloudy with Light Rain 64 17.8 61 16.1 90 90 N 23 37 29.51 999 4 6 0.00 0.00
12:02 pm 12:02 Cloudy with Light Rain 64 17.8 61 16.1 90 90 N 26 43 29.52 1000 2 3 0.00 0.00
12:20 pm 12:20 Cloudy with Light Rain 64 17.8 61 16.1 90 90 N 24 39 29.52 1000 3 4 0.00 0.00
12:30 pm 12:30 Cloudy with Light Rain 63 17.2 60 15.6 90 90 N 23 37 29.52 1000 1 2 0.00 0.00
12:53 pm 12:53 Cloudy with Light Rain 62 16.7 60 15.6 93 93 N 23 37 29.54 1000 1 2 0.02 0.51
1:34 pm 13:34 Cloudy with Light Rain 61 16.1 58 14.4 90 90 NNW 20 31 29.55 1001 2 3 0.03 0.76
1:45 pm 13:45 Cloudy with Heavy Rain 61 16.1 58 14.4 90 90 N 22 35 29.55 1001 1 2 0.06 1.52
1:53 pm 13:53 Cloudy with Rain 61 16.1 58 14.4 90 90 NNW 23 37 29.55 1001 2 2 0.10 2.54
2:01 pm 14:01 Cloudy with Light Rain 60 15.6 58 14.4 93 93 NNW 20 31 29.55 1001 3 5 0.01 0.25
2:39 pm 14:39 Cloudy 58 14.4 54 12.2 87 87 NNW 31 50 29.56 1001 10 16 0.01 0.25
2:53 pm 14:53 Cloudy 57 13.9 54 12.2 90 90 N 29 46 29.56 1001 10 16 0.01 0.25
3:53 pm 15:53 Cloudy 57 13.9 53 11.7 87 87 N 29 46 29.57 1002 10 16 0.00 0.00
4:15 pm 16:15 Cloudy 57 13.9 53 11.7 87 87 NNW 22 35 29.57 1001 10 16 0.00 0.00
4:53 pm 16:53 Cloudy 57 13.9 53 11.7 87 87 N 28 44 29.56 1001 10 16 0.00 0.00
5:04 pm 17:04 Cloudy 58 14.4 53 11.7 84 84 N 32 52 29.55 1001 10 16 0.00 0.00
5:53 pm 17:53 Cloudy with Light Rain 56 13.3 51 10.6 84 84 N 36 57 29.55 1001 10 16 0.00 0.00
6:53 pm 18:53 Cloudy 59 15 50 10 72 72 N 36 57 29.55 1001 10 16 0.00 0.00
7:53 pm 19:53 Mostly Cloudy 59 15 51 10.6 75 75 N 35 56 29.57 1001 10 16 0.00 0.00
8:53 pm 20:53 Cloudy 59 15 47 8.3 64 64 N 35 56 29.62 1003 10 16 0.00 0.00
9:53 pm 21:53 Cloudy 58 14.4 47 8.3 67 67 N 32 52 29.67 1005 10 16 0.00 0.00
10:53 pm 22:53 Cloudy 58 14.4 50 10 75 75 N 32 52 29.70 1006 10 16 0.00 0.00
11:53 pm 23:53 Cloudy 58 14.4 50 10 75 75 N 33 54 29.71 1006 10 16 0.00 0.00

Powered by AerisWeather